contact:dominique.lefevre@mio.osupytheas.fr, maurice.libes@osupytheas.fr, didier.mallarino@osupytheas.fr
Project:EMSO http://www.emso-fr.org/EMSO-France
Depth: 2436.0 m
Title:EMSO Ligure Ouest : Data MII capteur AQUADOPP
Date,Latitude,Longitude,X_East,Y_North,Z_Up,Amplitude_X,Amplitude_Y,Amplitude_Z,Batterie,SoundSpeed,Heading,Pitch,Roll,Pressure,TIS,Speed,Direction
, degrees North, degrees East, m.s-1, m.s-1,m.s-1, 1, 1, 1, Volt, m.s-1, degree, degree, degree, dbar, degree_C, m.s-1, degree
2024-03-30T00:04:03,42.805,6.029,0.045,-0.044,-0.002,108.0,108.0,103.0,13.3,1505.2,358.1,-0.8,1.8,2471.823,13.28,0.062,134.4
2024-03-30T00:07:03,42.805,6.029,0.013,-0.084,-0.002,107.0,105.0,104.0,13.4,1505.2,9.8,-0.8,1.8,2471.813,13.28,0.084,171.2
2024-03-30T00:10:03,42.805,6.029,0.038,-0.058,0.002,107.0,107.0,105.0,13.4,1505.2,353.9,-0.8,1.8,2471.771,13.29,0.069,146.8
2024-03-30T00:13:03,42.805,6.029,0.016,-0.059,0.006,108.0,107.0,105.0,13.3,1505.2,356.0,-0.7,1.8,2471.806,13.29,0.061,164.8
2024-03-30T00:16:03,42.805,6.029,0.015,-0.077,0.022,107.0,106.0,105.0,13.3,1505.2,358.7,-0.7,1.8,2471.768,13.29,0.078,169.0
2024-03-30T00:19:03,42.805,6.029,0.021,-0.074,-0.01,107.0,107.0,104.0,13.4,1505.2,5.3,-0.7,1.8,2471.776,13.29,0.076,164.2
2024-03-30T00:22:03,42.805,6.029,0.038,-0.075,-0.014,106.0,107.0,104.0,13.4,1505.2,2.6,-0.8,1.8,2471.772,13.29,0.084,153.1
2024-03-30T00:25:03,42.805,6.029,0.033,-0.065,0.001,108.0,106.0,105.0,13.4,1505.2,355.5,-0.8,1.8,2471.785,13.29,0.072,153.1
2024-03-30T00:28:03,42.805,6.029,0.021,-0.083,0.031,108.0,106.0,103.0,13.4,1505.2,356.7,-0.7,1.8,2471.739,13.29,0.085,165.8
2024-03-30T00:31:03,42.805,6.029,0.041,-0.059,0.026,107.0,106.0,104.0,13.4,1505.2,4.8,-0.7,1.8,2471.791,13.29,0.071,145.2
2024-03-30T00:34:03,42.805,6.029,0.033,-0.069,0.012,108.0,107.0,105.0,13.4,1505.2,7.8,-0.8,1.8,2471.762,13.29,0.076,154.4
2024-03-30T00:37:03,42.805,6.029,0.051,-0.046,0.015,106.0,106.0,104.0,13.4,1505.2,353.1,-0.8,1.8,2471.717,13.29,0.068,132.0
2024-03-30T00:40:03,42.805,6.029,0.035,-0.063,0.012,106.0,107.0,104.0,13.3,1505.2,354.1,-0.7,1.8,2471.778,13.29,0.072,150.9
2024-03-30T00:43:03,42.805,6.029,0.009,-0.062,-0.029,107.0,107.0,105.0,13.3,1505.2,1.1,-0.8,1.8,2471.796,13.29,0.062,171.7
2024-03-30T00:46:03,42.805,6.029,0.037,-0.067,-0.015,108.0,107.0,103.0,13.4,1505.2,359.4,-0.8,1.8,2471.781,13.29,0.076,151.1
2024-03-30T00:49:03,42.805,6.029,0.017,-0.053,-0.003,107.0,108.0,105.0,13.4,1505.2,355.4,-0.8,1.8,2471.797,13.29,0.055,162.2
2024-03-30T00:52:03,42.805,6.029,0.052,-0.048,0.029,108.0,107.0,104.0,13.3,1505.2,352.0,-0.8,1.8,2471.792,13.29,0.07,132.7
2024-03-30T00:55:03,42.805,6.029,0.036,-0.067,-0.007,108.0,105.0,105.0,13.3,1505.2,355.1,-0.8,1.8,2471.728,13.29,0.076,151.7
2024-03-30T00:58:03,42.805,6.029,0.029,-0.069,0.029,107.0,108.0,104.0,13.4,1505.2,358.8,-0.8,1.8,2471.747,13.29,0.074,157.2
2024-03-30T01:04:03,42.805,6.029,0.017,-0.077,0.004,108.0,108.0,106.0,13.3,1505.2,2.7,-0.8,1.8,2471.713,13.28,0.078,167.6
2024-03-30T01:07:03,42.805,6.029,0.066,-0.061,-0.008,108.0,109.0,105.0,13.3,1505.2,355.5,-0.8,1.8,2471.784,13.28,0.089,132.7
2024-03-30T01:10:03,42.805,6.029,0.017,-0.074,0.006,109.0,109.0,105.0,13.3,1505.2,356.9,-0.8,1.8,2471.746,13.29,0.075,167.1
2024-03-30T01:13:03,42.805,6.029,0.018,-0.075,-0.004,108.0,108.0,104.0,13.4,1505.2,4.8,-0.7,1.8,2471.777,13.29,0.077,166.5
2024-03-30T01:16:03,42.805,6.029,0.016,-0.044,0.032,108.0,108.0,105.0,13.4,1505.2,2.8,-0.7,1.8,2471.745,13.29,0.046,160.0
2024-03-30T01:19:03,42.805,6.029,0.012,-0.059,0.007,108.0,108.0,105.0,13.3,1505.2,5.4,-0.8,1.8,2471.742,13.29,0.06,168.5
2024-03-30T01:22:03,42.805,6.029,0.036,-0.074,0.017,107.0,107.0,105.0,13.3,1505.2,9.0,-0.7,1.8,2471.756,13.29,0.082,154.1
2024-03-30T01:25:03,42.805,6.029,0.014,-0.046,0.023,108.0,108.0,105.0,13.4,1505.2,1.0,-0.8,1.8,2471.729,13.29,0.048,163.1
2024-03-30T01:28:03,42.805,6.029,0.039,-0.063,0.021,108.0,106.0,104.0,13.4,1505.2,353.5,-0.7,1.8,2471.748,13.29,0.074,148.2
2024-03-30T01:31:03,42.805,6.029,0.02,-0.079,0.001,107.0,107.0,103.0,13.4,1505.2,354.5,-0.7,1.8,2471.75,13.29,0.081,165.8
2024-03-30T01:34:03,42.805,6.029,0.01,-0.057,-0.008,107.0,107.0,104.0,13.3,1505.2,355.7,-0.8,1.8,2471.766,13.29,0.057,170.1
2024-03-30T01:37:03,42.805,6.029,0.02,-0.076,0.047,107.0,107.0,104.0,13.4,1505.2,0.0,-0.8,1.8,2471.734,13.29,0.078,165.3
2024-03-30T01:40:03,42.805,6.029,-0.012,-0.069,-0.006,107.0,106.0,104.0,13.3,1505.2,6.5,-0.8,1.8,2471.722,13.29,0.07,189.9
2024-03-30T01:43:03,42.805,6.029,0.038,-0.065,0.038,108.0,107.0,104.0,13.4,1505.2,359.4,-0.7,1.8,2471.723,13.29,0.075,149.7
2024-03-30T01:46:03,42.805,6.029,0.004,-0.042,-0.02,107.0,107.0,104.0,13.4,1505.2,355.7,-0.8,1.8,2471.725,13.29,0.042,174.6
2024-03-30T01:49:03,42.805,6.029,0.023,-0.073,-0.022,107.0,106.0,104.0,13.4,1505.2,3.4,-0.8,1.8,2471.695,13.29,0.076,162.5
2024-03-30T01:52:03,42.805,6.029,0.012,-0.055,-0.003,108.0,106.0,105.0,13.4,1505.2,2.9,-0.8,1.8,2471.704,13.29,0.056,167.7
2024-03-30T01:55:03,42.805,6.029,0.027,-0.063,0.023,107.0,106.0,105.0,13.3,1505.2,356.5,-0.8,1.8,2471.71,13.29,0.068,156.8
2024-03-30T01:58:03,42.805,6.029,0.035,-0.049,0.015,109.0,108.0,104.0,13.4,1505.2,1.6,-0.7,1.8,2471.765,13.29,0.06,144.5
2024-03-30T02:04:03,42.805,6.029,0.014,-0.073,0.016,106.0,106.0,106.0,13.4,1505.2,9.1,-0.8,1.8,2471.76,13.28,0.074,169.1
2024-03-30T02:07:03,42.805,6.029,0.041,-0.077,0.004,109.0,107.0,104.0,13.4,1505.2,354.9,-0.7,1.8,2471.706,13.28,0.087,152.0
2024-03-30T02:10:03,42.805,6.029,0.019,-0.092,0.037,108.0,107.0,104.0,13.4,1505.2,4.6,-0.8,1.8,2471.75,13.29,0.093,168.3
2024-03-30T02:13:03,42.805,6.029,0.028,-0.075,-0.003,106.0,107.0,104.0,13.4,1505.2,0.5,-0.7,1.8,2471.767,13.29,0.08,159.5
2024-03-30T02:16:03,42.805,6.029,0.015,-0.063,0.009,107.0,107.0,105.0,13.3,1505.2,1.2,-0.8,1.9,2471.74,13.29,0.064,166.6
2024-03-30T02:19:05,42.805,6.029,0.036,-0.079,0.019,107.0,107.0,104.0,13.4,1505.2,358.7,-0.7,1.8,2471.724,13.29,0.086,155.5
2024-03-30T02:22:03,42.805,6.029,0.035,-0.061,-0.011,108.0,107.0,105.0,13.4,1505.2,2.9,-0.7,1.8,2471.745,13.29,0.07,150.2
2024-03-30T02:25:03,42.805,6.029,0.016,-0.074,-0.004,108.0,107.0,104.0,13.3,1505.2,0.6,-0.8,1.8,2471.701,13.29,0.075,167.8
2024-03-30T02:28:03,42.805,6.029,0.02,-0.073,0.024,108.0,107.0,105.0,13.3,1505.2,7.7,-0.8,1.8,2471.735,13.29,0.075,164.7
2024-03-30T02:31:03,42.805,6.029,0.035,-0.08,0.0,107.0,107.0,104.0,13.3,1505.2,352.8,-0.8,1.8,2471.723,13.29,0.087,156.4
2024-03-30T02:34:03,42.805,6.029,0.008,-0.065,0.023,108.0,107.0,103.0,13.3,1505.2,4.7,-0.8,1.8,2471.729,13.29,0.065,173.0
2024-03-30T02:37:03,42.805,6.029,0.01,-0.084,0.035,107.0,106.0,104.0,13.4,1505.2,0.0,-0.8,1.8,2471.732,13.29,0.084,173.2
2024-03-30T02:40:03,42.805,6.029,0.023,-0.046,0.008,108.0,108.0,104.0,13.4,1505.2,1.2,-0.8,1.8,2471.716,13.29,0.051,153.4
2024-03-30T02:43:03,42.805,6.029,0.018,-0.067,0.013,107.0,107.0,105.0,13.3,1505.2,4.8,-0.8,1.8,2471.705,13.29,0.069,165.0
2024-03-30T02:46:03,42.805,6.029,0.041,-0.065,-0.017,108.0,107.0,104.0,13.3,1505.2,1.1,-0.8,1.8,2471.739,13.29,0.076,147.8
2024-03-30T02:49:03,42.805,6.029,0.022,-0.065,0.02,108.0,106.0,104.0,13.3,1505.2,358.3,-0.8,1.8,2471.719,13.29,0.068,161.3
2024-03-30T02:52:03,42.805,6.029,0.023,-0.074,0.028,108.0,108.0,105.0,13.3,1505.2,355.1,-0.8,1.8,2471.716,13.29,0.077,162.7
2024-03-30T02:55:03,42.805,6.029,0.018,-0.062,0.031,108.0,107.0,104.0,13.3,1505.2,5.4,-0.8,1.8,2471.731,13.29,0.064,163.8
2024-03-30T02:58:03,42.805,6.029,0.012,-0.061,0.025,106.0,108.0,104.0,13.3,1505.2,9.0,-0.8,1.8,2471.727,13.29,0.062,168.9
2024-03-30T03:04:03,42.805,6.029,0.03,-0.048,-0.001,109.0,107.0,104.0,13.4,1505.2,355.1,-0.8,1.8,2471.75,13.28,0.056,148.0
2024-03-30T03:07:03,42.805,6.029,0.038,-0.068,0.027,107.0,108.0,104.0,13.4,1505.2,351.4,-0.8,1.8,2471.72,13.28,0.077,150.8
2024-03-30T03:10:03,42.805,6.029,0.023,-0.053,-0.007,107.0,108.0,105.0,13.4,1505.2,2.4,-0.8,1.8,2471.704,13.29,0.057,156.5
2024-03-30T03:13:03,42.805,6.029,0.024,-0.073,0.034,108.0,107.0,104.0,13.3,1505.2,3.0,-0.8,1.8,2471.737,13.29,0.076,161.8
2024-03-30T03:16:03,42.805,6.029,0.044,-0.039,-0.005,108.0,107.0,105.0,13.4,1505.2,357.0,-0.7,1.8,2471.72,13.29,0.058,131.6
2024-03-30T03:19:03,42.805,6.029,0.011,-0.062,-0.005,108.0,108.0,105.0,13.4,1505.2,4.9,-0.8,1.8,2471.731,13.29,0.062,169.9
2024-03-30T03:22:03,42.805,6.029,0.016,-0.078,0.031,108.0,106.0,105.0,13.4,1505.2,6.1,-0.7,1.9,2471.693,13.29,0.079,168.4
2024-03-30T03:25:03,42.805,6.029,0.008,-0.068,-0.009,107.0,108.0,105.0,13.4,1505.2,8.7,-0.8,1.8,2471.688,13.29,0.068,173.3
2024-03-30T03:28:03,42.805,6.029,0.014,-0.069,0.002,108.0,107.0,104.0,13.3,1505.2,5.6,-0.7,1.8,2471.715,13.29,0.07,168.5
2024-03-30T03:31:03,42.805,6.029,0.036,-0.054,0.032,107.0,107.0,105.0,13.4,1505.2,356.0,-0.7,1.8,2471.716,13.29,0.064,146.3
2024-03-30T03:34:03,42.805,6.029,0.016,-0.083,0.011,108.0,107.0,104.0,13.4,1505.2,8.8,-0.8,1.8,2471.693,13.29,0.084,169.1
2024-03-30T03:37:03,42.805,6.029,0.013,-0.069,0.01,107.0,107.0,104.0,13.4,1505.2,9.1,-0.7,1.8,2471.72,13.29,0.07,169.3
2024-03-30T03:40:03,42.805,6.029,0.025,-0.049,0.005,107.0,107.0,105.0,13.3,1505.2,352.1,-0.7,1.8,2471.694,13.29,0.055,153.0
2024-03-30T03:43:03,42.805,6.029,0.033,-0.058,0.013,108.0,107.0,104.0,13.4,1505.2,350.9,-0.7,1.8,2471.705,13.29,0.066,150.4
2024-03-30T03:46:03,42.805,6.029,0.022,-0.082,0.049,107.0,107.0,105.0,13.4,1505.2,1.2,-0.7,1.8,2471.683,13.29,0.084,165.0
2024-03-30T03:49:03,42.805,6.029,0.038,-0.067,0.016,107.0,106.0,103.0,13.3,1505.2,357.5,-0.8,1.8,2471.704,13.29,0.077,150.4
2024-03-30T03:52:03,42.805,6.029,0.037,-0.056,0.007,107.0,108.0,104.0,13.3,1505.2,0.5,-0.7,1.8,2471.716,13.29,0.067,146.5
2024-03-30T03:55:03,42.805,6.029,0.026,-0.078,0.016,107.0,107.0,104.0,13.4,1505.2,7.9,-0.8,1.8,2471.7,13.29,0.082,161.6
2024-03-30T03:58:03,42.805,6.029,0.027,-0.06,-0.021,109.0,107.0,105.0,13.4,1505.2,353.8,-0.7,1.8,2471.704,13.29,0.065,155.8
2024-03-30T04:04:03,42.805,6.029,0.021,-0.045,0.025,109.0,108.0,104.0,13.4,1505.2,357.5,-0.8,1.8,2471.738,13.28,0.049,155.0
2024-03-30T04:07:03,42.805,6.029,0.029,-0.056,0.019,108.0,106.0,104.0,13.4,1505.2,354.9,-0.8,1.8,2471.702,13.29,0.063,152.6
2024-03-30T04:10:03,42.805,6.029,0.024,-0.047,0.01,108.0,107.0,104.0,13.3,1505.2,353.9,-0.8,1.8,2471.695,13.29,0.052,153.0
2024-03-30T04:13:03,42.805,6.029,0.039,-0.069,0.025,108.0,108.0,103.0,13.4,1505.2,2.9,-0.8,1.8,2471.698,13.29,0.079,150.5
2024-03-30T04:16:03,42.805,6.029,0.032,-0.067,0.017,108.0,107.0,105.0,13.4,1505.2,355.7,-0.8,1.8,2471.695,13.29,0.074,154.5
2024-03-30T04:19:06,42.805,6.029,0.024,-0.058,0.019,106.0,108.0,104.0,13.4,1505.2,3.6,-0.8,1.8,2471.716,13.29,0.062,157.5
2024-03-30T04:22:03,42.805,6.029,0.005,-0.071,-0.001,107.0,107.0,104.0,13.4,1505.2,3.7,-0.7,1.8,2471.721,13.29,0.071,176.0
2024-03-30T04:25:03,42.805,6.029,0.043,-0.057,0.005,108.0,106.0,105.0,13.4,1505.2,350.5,-0.8,1.8,2471.735,13.29,0.071,143.0
2024-03-30T04:28:03,42.805,6.029,0.019,-0.079,-0.007,106.0,107.0,105.0,13.3,1505.2,356.6,-0.7,1.9,2471.709,13.29,0.081,166.5
2024-03-30T04:31:03,42.805,6.029,0.011,-0.067,0.028,106.0,108.0,105.0,13.4,1505.2,0.0,-0.8,1.8,2471.671,13.29,0.067,170.7
2024-03-30T04:34:03,42.805,6.029,0.018,-0.06,0.018,108.0,108.0,103.0,13.4,1505.2,8.2,-0.7,1.8,2471.752,13.29,0.062,163.3
2024-03-30T04:37:03,42.805,6.029,0.031,-0.065,0.0,107.0,107.0,105.0,13.4,1505.2,354.4,-0.8,1.8,2471.721,13.29,0.072,154.5
2024-03-30T04:40:03,42.805,6.029,0.018,-0.07,0.013,108.0,106.0,104.0,13.4,1505.2,4.1,-0.7,1.8,2471.705,13.29,0.072,165.6
2024-03-30T04:43:03,42.805,6.029,0.005,-0.051,-0.003,108.0,107.0,104.0,13.3,1505.2,8.3,-0.8,1.8,2471.681,13.29,0.051,174.4
2024-03-30T04:46:03,42.805,6.029,0.017,-0.057,0.004,108.0,107.0,103.0,13.4,1505.2,0.5,-0.8,1.8,2471.695,13.29,0.059,163.4
2024-03-30T04:49:03,42.805,6.029,0.011,-0.054,0.004,107.0,107.0,104.0,13.4,1505.2,355.1,-0.7,1.8,2471.733,13.29,0.055,168.5
2024-03-30T04:52:03,42.805,6.029,0.027,-0.047,-0.002,108.0,107.0,104.0,13.4,1505.2,352.6,-0.7,1.8,2471.691,13.29,0.054,150.1
2024-03-30T04:55:03,42.805,6.029,0.0,-0.066,0.009,107.0,107.0,104.0,13.4,1505.2,4.1,-0.7,1.8,2471.685,13.29,0.065,180.0
2024-03-30T04:58:03,42.805,6.029,0.002,-0.043,-0.001,109.0,107.0,104.0,13.4,1505.2,0.5,-0.8,1.8,2471.682,13.29,0.043,177.3
2024-03-30T05:04:03,42.805,6.029,0.039,-0.076,0.013,108.0,107.0,104.0,13.3,1505.2,352.6,-0.8,1.8,2471.718,13.28,0.085,152.8
2024-03-30T05:07:03,42.805,6.029,0.02,-0.07,-0.009,108.0,107.0,105.0,13.3,1505.2,356.3,-0.8,1.8,2471.715,13.28,0.072,164.1
2024-03-30T05:10:03,42.805,6.029,0.013,-0.07,-0.02,107.0,106.0,104.0,13.4,1505.2,357.7,-0.8,1.8,2471.698,13.29,0.071,169.5
2024-03-30T05:13:03,42.805,6.029,0.022,-0.066,0.02,108.0,106.0,104.0,13.4,1505.2,6.9,-0.8,1.8,2471.713,13.29,0.069,161.6
2024-03-30T05:16:03,42.805,6.029,0.047,-0.052,-0.017,108.0,107.0,104.0,13.4,1505.2,353.3,-0.7,1.8,2471.728,13.29,0.07,137.9
2024-03-30T05:19:03,42.805,6.029,0.019,-0.058,-0.002,106.0,106.0,105.0,13.4,1505.2,356.3,-0.7,1.8,2471.719,13.29,0.061,161.9
2024-03-30T05:22:03,42.805,6.029,0.016,-0.058,-0.007,108.0,108.0,104.0,13.3,1505.2,356.0,-0.7,1.8,2471.736,13.29,0.06,164.6
2024-03-30T05:25:03,42.805,6.029,0.023,-0.049,0.0,109.0,107.0,104.0,13.3,1505.2,7.3,-0.8,1.8,2471.672,13.29,0.054,154.9
2024-03-30T05:28:03,42.805,6.029,0.01,-0.075,0.01,107.0,107.0,104.0,13.3,1505.2,8.0,-0.7,1.8,2471.708,13.29,0.075,172.4
2024-03-30T05:31:03,42.805,6.029,0.033,-0.062,-0.006,108.0,106.0,103.0,13.3,1505.2,353.5,-0.8,1.9,2471.714,13.29,0.07,152.0
2024-03-30T05:34:03,42.805,6.029,0.029,-0.068,0.034,107.0,106.0,104.0,13.4,1505.2,3.5,-0.7,1.8,2471.702,13.29,0.073,156.9
2024-03-30T05:37:03,42.805,6.029,0.0,-0.064,0.0,107.0,107.0,105.0,13.4,1505.2,8.1,-0.7,1.8,2471.75,13.29,0.063,180.0
2024-03-30T05:40:03,42.805,6.029,0.0,-0.072,0.004,107.0,106.0,104.0,13.3,1505.2,5.6,-0.8,1.9,2471.718,13.29,0.071,180.0
2024-03-30T05:43:03,42.805,6.029,0.041,-0.066,0.014,107.0,107.0,104.0,13.4,1505.2,355.2,-0.8,1.8,2471.732,13.29,0.077,148.1
2024-03-30T05:46:03,42.805,6.029,-0.007,-0.081,0.009,108.0,107.0,104.0,13.4,1505.2,1.1,-0.8,1.8,2471.706,13.29,0.081,184.9
2024-03-30T05:49:03,42.805,6.029,0.043,-0.087,-0.022,105.0,108.0,104.0,13.4,1505.2,355.2,-0.8,1.8,2471.688,13.29,0.097,153.7
2024-03-30T05:52:03,42.805,6.029,0.014,-0.08,0.015,107.0,107.0,105.0,13.3,1505.2,359.4,-0.8,1.8,2471.695,13.29,0.081,170.1
2024-03-30T05:55:03,42.805,6.029,0.02,-0.077,-0.032,106.0,107.0,104.0,13.4,1505.2,357.5,-0.8,1.8,2471.743,13.29,0.079,165.4
2024-03-30T05:58:03,42.805,6.029,0.017,-0.071,-0.004,107.0,106.0,104.0,13.3,1505.2,0.0,-0.7,1.8,2471.69,13.29,0.073,166.5
2024-03-30T06:04:03,42.805,6.029,0.017,-0.059,-0.007,107.0,107.0,103.0,13.3,1505.2,1.6,-0.8,1.8,2471.744,13.28,0.061,163.9
2024-03-30T06:07:03,42.805,6.029,0.005,-0.065,0.003,107.0,106.0,104.0,13.4,1505.2,352.4,-0.7,1.8,2471.746,13.29,0.065,175.6
2024-03-30T06:10:03,42.805,6.029,0.025,-0.055,0.02,108.0,107.0,104.0,13.3,1505.2,1.2,-0.8,1.8,2471.717,13.29,0.06,155.6
2024-03-30T06:13:03,42.805,6.029,0.001,-0.066,0.008,107.0,106.0,103.0,13.4,1505.2,1.0,-0.8,1.8,2471.715,13.29,0.066,179.1
2024-03-30T06:16:03,42.805,6.029,0.019,-0.082,-0.001,108.0,107.0,104.0,13.4,1505.2,356.5,-0.7,1.8,2471.728,13.29,0.084,167.0
2024-03-30T06:19:03,42.805,6.029,0.003,-0.052,-0.007,108.0,107.0,104.0,13.4,1505.2,356.1,-0.8,1.8,2471.726,13.29,0.052,176.7
2024-03-30T06:22:03,42.805,6.029,0.013,-0.035,0.01,107.0,106.0,104.0,13.4,1505.2,2.9,-0.8,1.8,2471.747,13.29,0.037,159.6
2024-03-30T06:25:03,42.805,6.029,0.035,-0.056,0.021,108.0,107.0,104.0,13.4,1505.2,351.7,-0.7,1.8,2471.733,13.29,0.066,148.0
2024-03-30T06:28:03,42.805,6.029,0.009,-0.027,0.017,108.0,107.0,104.0,13.4,1505.2,1.1,-0.7,1.8,2471.75,13.29,0.028,161.6
2024-03-30T06:31:03,42.805,6.029,0.029,-0.061,0.005,107.0,107.0,103.0,13.4,1505.2,359.4,-0.8,1.8,2471.763,13.29,0.067,154.6
2024-03-30T06:34:03,42.805,6.029,0.028,-0.063,0.014,107.0,108.0,104.0,13.3,1505.2,353.8,-0.7,1.8,2471.767,13.29,0.068,156.0
2024-03-30T06:37:03,42.805,6.029,0.011,-0.056,0.015,109.0,107.0,104.0,13.3,1505.2,1.2,-0.7,1.8,2471.758,13.29,0.057,168.9
2024-03-30T06:40:03,42.805,6.029,0.036,-0.047,0.004,109.0,107.0,104.0,13.4,1505.2,356.4,-0.8,1.8,2471.755,13.29,0.059,142.5
2024-03-30T06:43:03,42.805,6.029,0.006,-0.061,-0.018,107.0,107.0,104.0,13.4,1505.2,3.6,-0.8,1.8,2471.819,13.29,0.061,174.4
2024-03-30T06:46:03,42.805,6.029,0.021,-0.042,0.028,108.0,107.0,103.0,13.3,1505.2,355.0,-0.7,1.8,2471.784,13.29,0.046,153.4
2024-03-30T06:49:03,42.805,6.029,0.0,-0.059,0.012,108.0,107.0,103.0,13.3,1505.2,354.6,-0.8,1.8,2471.768,13.29,0.058,180.0
2024-03-30T06:52:03,42.805,6.029,-0.007,-0.053,0.011,108.0,107.0,104.0,13.3,1505.2,9.5,-0.7,1.8,2471.764,13.29,0.053,187.5
2024-03-30T06:55:03,42.805,6.029,0.023,-0.049,-0.004,107.0,106.0,103.0,13.4,1505.2,353.3,-0.8,1.8,2471.75,13.29,0.054,154.9
2024-03-30T06:58:03,42.805,6.029,0.011,-0.063,-0.02,108.0,106.0,104.0,13.3,1505.2,359.4,-0.7,1.8,2471.772,13.29,0.063,170.1
2024-03-30T07:04:03,42.805,6.029,0.022,-0.052,0.0,108.0,107.0,105.0,13.4,1505.2,354.9,-0.8,1.8,2471.764,13.28,0.056,157.1
2024-03-30T07:07:03,42.805,6.029,0.006,-0.044,0.004,107.0,107.0,104.0,13.3,1505.2,4.3,-0.8,1.8,2471.756,13.29,0.044,172.2
2024-03-30T07:10:03,42.805,6.029,0.016,-0.05,-0.002,107.0,106.0,105.0,13.4,1505.2,3.3,-0.8,1.8,2471.767,13.29,0.052,162.3
2024-03-30T07:13:03,42.805,6.029,0.02,-0.061,0.011,107.0,106.0,104.0,13.3,1505.2,2.3,-0.8,1.8,2471.788,13.29,0.064,161.9
2024-03-30T07:16:03,42.805,6.029,0.015,-0.042,-0.006,107.0,107.0,104.0,13.4,1505.2,0.5,-0.8,1.8,2471.8,13.29,0.044,160.4
2024-03-30T07:19:03,42.805,6.029,0.024,-0.072,-0.005,108.0,106.0,104.0,13.3,1505.2,5.3,-0.8,1.8,2471.792,13.29,0.075,161.6
2024-03-30T07:22:03,42.805,6.029,0.012,-0.064,0.0,107.0,107.0,104.0,13.3,1505.2,7.9,-0.8,1.8,2471.816,13.29,0.065,169.4
2024-03-30T07:25:03,42.805,6.029,0.027,-0.077,-0.009,108.0,106.0,104.0,13.4,1505.2,356.1,-0.8,1.8,2471.804,13.29,0.081,160.7
2024-03-30T07:28:03,42.805,6.029,0.015,-0.054,-0.008,106.0,106.0,104.0,13.4,1505.2,1.2,-0.7,1.8,2471.803,13.29,0.056,164.5
2024-03-30T07:31:03,42.805,6.029,0.019,-0.084,0.007,107.0,106.0,103.0,13.4,1505.2,355.8,-0.8,1.8,2471.79,13.29,0.086,167.3
2024-03-30T07:34:03,42.805,6.029,0.004,-0.069,-0.028,106.0,106.0,104.0,13.3,1505.2,357.8,-0.7,1.8,2471.795,13.29,0.069,176.7
2024-03-30T07:37:03,42.805,6.029,0.024,-0.059,0.015,107.0,108.0,104.0,13.4,1505.2,355.1,-0.7,1.8,2471.811,13.29,0.063,157.9
2024-03-30T07:40:03,42.805,6.029,0.02,-0.058,-0.014,107.0,107.0,104.0,13.4,1505.2,355.2,-0.8,1.8,2471.786,13.29,0.061,161.0
2024-03-30T07:43:03,42.805,6.029,0.012,-0.067,-0.007,108.0,107.0,105.0,13.4,1505.2,355.6,-0.8,1.8,2471.819,13.29,0.068,169.8
2024-03-30T07:46:03,42.805,6.029,0.025,-0.039,-0.011,107.0,106.0,104.0,13.4,1505.2,352.5,-0.8,1.8,2471.806,13.29,0.046,147.3
2024-03-30T07:49:03,42.805,6.029,0.01,-0.055,-0.008,107.0,106.0,104.0,13.3,1505.2,357.1,-0.8,1.8,2471.804,13.29,0.055,169.7
2024-03-30T07:52:03,42.805,6.029,0.006,-0.038,0.008,107.0,107.0,104.0,13.3,1505.2,8.6,-0.8,1.8,2471.839,13.29,0.038,171.0
2024-03-30T07:55:03,42.805,6.029,0.02,-0.065,0.021,106.0,108.0,105.0,13.3,1505.2,3.0,-0.8,1.8,2471.81,13.29,0.068,162.9
2024-03-30T07:58:03,42.805,6.029,0.017,-0.052,0.012,107.0,106.0,104.0,13.3,1505.2,8.2,-0.7,1.8,2471.83,13.29,0.054,161.9
2024-03-30T08:04:03,42.805,6.029,0.028,-0.049,-0.016,107.0,108.0,104.0,13.4,1505.2,352.7,-0.8,1.8,2471.816,13.28,0.056,150.3
2024-03-30T08:07:03,42.805,6.029,0.022,-0.069,0.013,107.0,106.0,104.0,13.4,1505.2,359.4,-0.8,1.8,2471.847,13.29,0.072,162.3
2024-03-30T08:10:03,42.805,6.029,0.009,-0.036,-0.024,108.0,106.0,104.0,13.4,1505.2,355.7,-0.7,1.8,2471.823,13.29,0.037,166.0
2024-03-30T08:13:03,42.805,6.029,0.021,-0.033,-0.008,109.0,108.0,104.0,13.4,1505.2,355.8,-0.8,1.8,2471.823,13.29,0.039,147.5
2024-03-30T08:16:03,42.805,6.029,0.021,-0.06,-0.002,108.0,106.0,105.0,13.4,1505.2,8.8,-0.7,1.8,2471.846,13.29,0.063,160.7
2024-03-30T08:19:03,42.805,6.029,0.034,-0.032,0.001,109.0,106.0,104.0,13.4,1505.2,350.7,-0.8,1.8,2471.801,13.29,0.046,133.3
2024-03-30T08:22:03,42.805,6.029,0.033,-0.063,0.014,107.0,107.0,104.0,13.4,1505.2,4.7,-0.8,1.8,2471.853,13.29,0.071,152.4
2024-03-30T08:25:03,42.805,6.029,0.016,-0.044,-0.005,107.0,107.0,104.0,13.3,1505.2,4.9,-0.8,1.8,2471.808,13.29,0.046,160.0
2024-03-30T08:28:03,42.805,6.029,0.022,-0.067,0.014,107.0,107.0,104.0,13.3,1505.2,8.1,-0.8,1.8,2471.834,13.29,0.07,161.8
2024-03-30T08:31:03,42.805,6.029,0.017,-0.044,-0.008,108.0,106.0,104.0,13.4,1505.2,355.7,-0.7,1.8,2471.821,13.29,0.047,158.9
2024-03-30T08:34:03,42.805,6.029,0.032,-0.053,-0.013,107.0,107.0,105.0,13.3,1505.2,356.5,-0.8,1.8,2471.877,13.29,0.061,148.9
2024-03-30T08:37:03,42.805,6.029,0.026,-0.04,0.01,108.0,106.0,104.0,13.4,1505.2,3.8,-0.8,1.8,2471.816,13.29,0.047,147.0
2024-03-30T08:40:03,42.805,6.029,0.034,-0.046,0.026,108.0,107.0,104.0,13.3,1505.2,352.8,-0.7,1.8,2471.809,13.29,0.057,143.5
2024-03-30T08:43:03,42.805,6.029,0.023,-0.072,0.016,108.0,107.0,104.0,13.4,1505.2,1.8,-0.8,1.8,2471.855,13.29,0.075,162.3
2024-03-30T08:46:03,42.805,6.029,0.036,-0.071,0.0,108.0,107.0,104.0,13.3,1505.2,354.0,-0.8,1.8,2471.842,13.29,0.079,153.1
2024-03-30T08:49:03,42.805,6.029,0.045,-0.042,-0.002,107.0,107.0,105.0,13.4,1505.2,1.7,-0.8,1.8,2471.836,13.29,0.061,133.0
2024-03-30T08:52:03,42.805,6.029,0.0,-0.042,0.019,107.0,106.0,104.0,13.4,1505.2,7.6,-0.8,1.8,2471.827,13.29,0.042,180.0
2024-03-30T08:55:03,42.805,6.029,0.018,-0.061,-0.032,108.0,106.0,104.0,13.4,1505.2,5.4,-0.7,1.8,2471.846,13.29,0.063,163.6
2024-03-30T08:58:03,42.805,6.029,0.018,-0.029,-0.011,107.0,106.0,104.0,13.3,1505.2,358.9,-0.8,1.8,2471.858,13.29,0.034,148.2
2024-03-30T09:04:03,42.805,6.029,0.0,-0.041,-0.008,108.0,106.0,105.0,13.4,1505.2,359.3,-0.8,1.8,2471.824,13.28,0.041,180.0
2024-03-30T09:07:03,42.805,6.029,0.006,-0.059,0.009,107.0,107.0,103.0,13.4,1505.2,0.5,-0.8,1.8,2471.868,13.29,0.059,174.2
2024-03-30T09:10:03,42.805,6.029,0.018,-0.048,0.037,107.0,107.0,104.0,13.3,1505.2,9.3,-0.8,1.8,2471.828,13.29,0.051,159.4
2024-03-30T09:13:03,42.805,6.029,0.004,-0.057,0.023,108.0,106.0,105.0,13.4,1505.2,359.3,-0.8,1.8,2471.849,13.29,0.057,176.0
2024-03-30T09:16:03,42.805,6.029,0.022,-0.051,-0.02,107.0,106.0,104.0,13.4,1505.2,355.6,-0.8,1.8,2471.882,13.29,0.055,156.7
2024-03-30T09:19:03,42.805,6.029,0.028,-0.036,0.022,107.0,106.0,104.0,13.4,1505.2,0.0,-0.8,1.8,2471.829,13.29,0.045,142.1
2024-03-30T09:22:03,42.805,6.029,0.0,-0.052,0.001,108.0,107.0,105.0,13.3,1505.2,0.6,-0.7,1.8,2471.848,13.29,0.052,180.0
2024-03-30T09:25:03,42.805,6.029,0.011,-0.053,0.027,109.0,107.0,104.0,13.3,1505.2,2.9,-0.7,1.8,2471.833,13.29,0.054,168.3
2024-03-30T09:28:03,42.805,6.029,0.013,-0.048,0.017,108.0,106.0,104.0,13.3,1505.2,5.7,-0.8,1.8,2471.826,13.29,0.049,164.8
2024-03-30T09:31:03,42.805,6.029,0.005,-0.059,0.003,109.0,107.0,104.0,13.4,1505.2,1.8,-0.8,1.8,2471.794,13.29,0.059,175.2
2024-03-30T09:34:03,42.805,6.029,0.008,-0.058,0.001,107.0,107.0,103.0,13.4,1505.2,357.1,-0.8,1.8,2471.841,13.29,0.058,172.2
2024-03-30T09:37:03,42.805,6.029,0.027,-0.063,0.017,107.0,106.0,104.0,13.4,1505.2,357.2,-0.8,1.8,2471.83,13.29,0.068,156.8
2024-03-30T09:40:03,42.805,6.029,0.014,-0.056,-0.005,107.0,107.0,104.0,13.4,1505.2,2.8,-0.8,1.8,2471.881,13.29,0.057,166.0
2024-03-30T09:43:03,42.805,6.029,0.033,-0.038,0.006,107.0,107.0,104.0,13.4,1505.2,357.5,-0.8,1.9,2471.867,13.29,0.05,139.0
2024-03-30T09:46:03,42.805,6.029,0.022,-0.051,-0.001,108.0,106.0,103.0,13.4,1505.2,2.6,-0.8,1.8,2471.839,13.29,0.055,156.7
2024-03-30T09:49:03,42.805,6.029,0.029,-0.037,0.018,107.0,106.0,104.0,13.3,1505.2,0.6,-0.7,1.8,2471.852,13.29,0.047,141.9
2024-03-30T09:52:03,42.805,6.029,0.03,-0.054,0.012,107.0,107.0,103.0,13.3,1505.2,0.0,-0.7,1.8,2471.852,13.29,0.061,150.9
2024-03-30T09:55:03,42.805,6.029,0.001,-0.031,0.0,108.0,107.0,104.0,13.3,1505.2,3.3,-0.8,1.8,2471.854,13.29,0.031,178.2
2024-03-30T09:58:03,42.805,6.029,0.033,-0.046,0.037,108.0,108.0,106.0,13.4,1505.2,1.2,-0.7,1.8,2471.819,13.29,0.056,144.3
2024-03-30T10:04:03,42.805,6.029,0.026,-0.035,0.01,108.0,107.0,105.0,13.4,1505.2,6.5,-0.7,1.8,2471.846,13.28,0.043,143.4